Time,TemperatureF,DewpointF,PressureIn,WindDirection,WindDirectionDegrees,WindSpeedMPH,WindSpeedGustMPH,Humidity,HourlyPrecipIn,Conditions,Clouds,dailyrainin,SoftwareType,DateUTC
2013-03-05 00:00:00,29.5,22.6,29.73,NW,320,4.0,8.0,75,0.00,,,0.00,WeatherCatV1.10B1784,2013-03-05 05:00:00,
2013-03-05 00:05:00,29.5,22.6,29.74,NW,323,4.0,5.0,75,0.00,,,0.00,WeatherCatV1.10B1784,2013-03-05 05:05:00,
2013-03-05 00:10:00,29.4,22.8,29.74,NNW,347,3.0,5.0,76,0.00,,,0.00,WeatherCatV1.10B1784,2013-03-05 05:10:00,
2013-03-05 00:15:00,29.3,22.7,29.74,NNW,348,2.0,8.0,76,0.00,,,0.00,WeatherCatV1.10B1784,2013-03-05 05:15:00,
2013-03-05 00:20:00,29.3,22.7,29.75,NNW,348,3.0,8.0,76,0.00,,,0.00,WeatherCatV1.10B1784,2013-03-05 05:20:00,
2013-03-05 00:25:00,29.2,22.6,29.75,NNW,344,2.0,5.0,76,0.00,,,0.00,WeatherCatV1.10B1784,2013-03-05 05:25:00,
2013-03-05 00:30:00,29.2,22.6,29.75,NNW,344,0.0,5.0,76,0.00,,,0.00,WeatherCatV1.10B1784,2013-03-05 05:30:00,
2013-03-05 00:35:00,29.1,22.5,29.75,WNW,299,4.0,7.0,76,0.00,,,0.00,WeatherCatV1.10B1784,2013-03-05 05:35:00,
2013-03-05 00:40:00,29.1,22.5,29.75,NW,322,5.0,5.0,76,0.00,,,0.00,WeatherCatV1.10B1784,2013-03-05 05:40:00,
2013-03-05 00:45:00,29.1,22.5,29.75,NNW,327,4.0,7.0,76,0.00,,,0.00,WeatherCatV1.10B1784,2013-03-05 05:45:00,
2013-03-05 00:50:00,29.1,22.5,29.75,NW,323,2.0,4.0,76,0.00,,,0.00,WeatherCatV1.10B1784,2013-03-05 05:50:00,
2013-03-05 00:55:00,29.2,22.6,29.75,NNW,339,4.0,5.0,76,0.00,,,0.00,WeatherCatV1.10B1784,2013-03-05 05:55:00,
2013-03-05 01:00:00,29.2,22.3,29.76,NW,306,3.0,5.0,75,0.00,,,0.00,WeatherCatV1.10B1784,2013-03-05 06:00:00,
2013-03-05 01:05:00,29.1,22.2,29.76,NW,318,2.0,6.0,75,0.00,,,0.00,WeatherCatV1.10B1784,2013-03-05 06:05:00,
2013-03-05 01:10:00,29.0,22.1,29.76,NW,308,3.0,5.0,75,0.00,,,0.00,WeatherCatV1.10B1784,2013-03-05 06:10:00,
2013-03-05 01:15:00,29.0,22.4,29.76,NW,319,2.0,4.0,76,0.00,,,0.00,WeatherCatV1.10B1784,2013-03-05 06:15:00,
2013-03-05 01:20:00,29.0,22.4,29.77,NW,311,3.0,8.0,76,0.00,,,0.00,WeatherCatV1.10B1784,2013-03-05 06:20:00,
2013-03-05 01:25:00,28.9,22.3,29.77,NW,324,5.0,5.0,76,0.00,,,0.00,WeatherCatV1.10B1784,2013-03-05 06:25:00,
2013-03-05 01:30:00,29.1,22.2,29.77,NW,318,6.0,11.0,75,0.00,,,0.00,WeatherCatV1.10B1784,2013-03-05 06:30:00,
2013-03-05 01:35:00,29.1,22.2,29.77,WNW,285,11.0,12.0,75,0.00,,,0.00,WeatherCatV1.10B1784,2013-03-05 06:35:00,
2013-03-05 01:40:00,29.1,22.2,29.77,NW,305,5.0,8.0,75,0.00,,,0.00,WeatherCatV1.10B1784,2013-03-05 06:40:00,
2013-03-05 01:45:00,29.1,22.2,29.77,NW,322,4.0,8.0,75,0.00,,,0.00,WeatherCatV1.10B1784,2013-03-05 06:45:00,
2013-03-05 01:50:00,29.1,22.2,29.77,NW,321,5.0,9.0,75,0.00,,,0.00,WeatherCatV1.10B1784,2013-03-05 06:50:00,
2013-03-05 01:55:00,29.0,22.1,29.77,NW,317,5.0,8.0,75,0.00,,,0.00,WeatherCatV1.10B1784,2013-03-05 06:55:00,
2013-03-05 02:00:00,29.0,22.1,29.77,NW,323,4.0,7.0,75,0.00,,,0.00,WeatherCatV1.10B1784,2013-03-05 07:00:00,
2013-03-05 02:05:00,28.8,22.2,29.77,NW,322,4.0,8.0,76,0.00,,,0.00,WeatherCatV1.10B1784,2013-03-05 07:05:00,
2013-03-05 02:10:00,28.8,22.2,29.77,NW,308,11.0,13.0,76,0.00,,,0.00,WeatherCatV1.10B1784,2013-03-05 07:10:00,
2013-03-05 02:15:00,29.0,22.4,29.77,NW,325,5.0,14.0,76,0.00,,,0.00,WeatherCatV1.10B1784,2013-03-05 07:15:00,
2013-03-05 02:20:00,29.1,22.2,29.77,NW,323,1.0,10.0,75,0.00,,,0.00,WeatherCatV1.10B1784,2013-03-05 07:20:00,
2013-03-05 02:25:00,29.0,22.4,29.77,NNW,328,7.0,11.0,76,0.00,,,0.00,WeatherCatV1.10B1784,2013-03-05 07:25:00,
2013-03-05 02:30:00,28.9,22.3,29.77,NNW,342,2.0,9.0,76,0.00,,,0.00,WeatherCatV1.10B1784,2013-03-05 07:30:00,
2013-03-05 02:35:00,28.9,22.3,29.77,NW,323,7.0,8.0,76,0.00,,,0.00,WeatherCatV1.10B1784,2013-03-05 07:35:00,
2013-03-05 02:40:00,28.8,22.2,29.78,NNW,329,7.0,9.0,76,0.00,,,0.00,WeatherCatV1.10B1784,2013-03-05 07:40:00,
2013-03-05 02:45:00,28.8,22.2,29.78,NW,315,6.0,7.0,76,0.00,,,0.00,WeatherCatV1.10B1784,2013-03-05 07:45:00,
2013-03-05 02:50:00,28.8,22.2,29.78,NW,315,4.0,7.0,76,0.00,,,0.00,WeatherCatV1.10B1784,2013-03-05 07:50:00,
2013-03-05 02:55:00,28.9,22.3,29.78,NW,317,4.0,8.0,76,0.00,,,0.00,WeatherCatV1.10B1784,2013-03-05 07:55:00,
2013-03-05 03:00:00,29.0,22.4,29.78,NW,318,5.0,8.0,76,0.00,,,0.00,WeatherCatV1.10B1784,2013-03-05 08:00:00,
2013-03-05 03:05:00,29.0,22.4,29.79,NW,320,5.0,10.0,76,0.00,,,0.00,WeatherCatV1.10B1784,2013-03-05 08:05:00,
2013-03-05 03:10:00,29.1,22.5,29.79,NNW,329,4.0,10.0,76,0.00,,,0.00,WeatherCatV1.10B1784,2013-03-05 08:10:00,
2013-03-05 03:15:00,29.0,22.4,29.79,NNW,339,4.0,7.0,76,0.00,,,0.00,WeatherCatV1.10B1784,2013-03-05 08:15:00,
2013-03-05 03:20:00,28.9,22.3,29.79,NNW,327,7.0,7.0,76,0.00,,,0.00,WeatherCatV1.10B1784,2013-03-05 08:20:00,
2013-03-05 03:25:00,28.8,22.2,29.79,North,352,5.0,10.0,76,0.00,,,0.00,WeatherCatV1.10B1784,2013-03-05 08:25:00,
2013-03-05 03:30:00,28.8,22.2,29.79,NW,312,6.0,9.0,76,0.00,,,0.00,WeatherCatV1.10B1784,2013-03-05 08:30:00,
2013-03-05 03:35:00,28.7,22.4,29.80,NW,325,4.0,5.0,77,0.00,,,0.00,WeatherCatV1.10B1784,2013-03-05 08:35:00,
2013-03-05 03:40:00,28.7,22.1,29.79,North,2,6.0,10.0,76,0.00,,,0.00,WeatherCatV1.10B1784,2013-03-05 08:40:00,
2013-03-05 03:45:00,28.7,22.1,29.80,NW,325,8.0,11.0,76,0.00,,,0.00,WeatherCatV1.10B1784,2013-03-05 08:45:00,
2013-03-05 03:50:00,28.8,22.2,29.80,NW,319,4.0,5.0,76,0.00,,,0.00,WeatherCatV1.10B1784,2013-03-05 08:50:00,
2013-03-05 03:55:00,28.7,22.4,29.80,NNW,348,3.0,11.0,77,0.00,,,0.00,WeatherCatV1.10B1784,2013-03-05 08:55:00,
2013-03-05 04:00:00,28.8,22.5,29.80,NW,315,5.0,11.0,77,0.00,,,0.00,WeatherCatV1.10B1784,2013-03-05 09:00:00,
2013-03-05 04:05:00,28.8,22.5,29.81,NNW,327,3.0,7.0,77,0.00,,,0.00,WeatherCatV1.10B1784,2013-03-05 09:05:00,
2013-03-05 04:10:00,28.9,22.3,29.81,NW,311,3.0,12.0,76,0.00,,,0.00,WeatherCatV1.10B1784,2013-03-05 09:10:00,
2013-03-05 04:15:00,29.0,22.4,29.81,NNW,330,7.0,7.0,76,0.00,,,0.00,WeatherCatV1.10B1784,2013-03-05 09:15:00,
2013-03-05 04:20:00,28.9,22.6,29.81,NNW,336,4.0,9.0,77,0.00,,,0.00,WeatherCatV1.10B1784,2013-03-05 09:20:00,
2013-03-05 04:25:00,28.8,22.5,29.82,NNW,332,4.0,5.0,77,0.00,,,0.00,WeatherCatV1.10B1784,2013-03-05 09:25:00,
2013-03-05 04:30:00,28.7,22.4,29.82,NNW,332,2.0,5.0,77,0.00,,,0.00,WeatherCatV1.10B1784,2013-03-05 09:30:00,
2013-03-05 04:35:00,28.5,22.2,29.82,NNW,332,4.0,4.0,77,0.00,,,0.00,WeatherCatV1.10B1784,2013-03-05 09:35:00,
2013-03-05 04:40:00,28.4,22.1,29.83,NNW,332,3.0,3.0,77,0.00,,,0.00,WeatherCatV1.10B1784,2013-03-05 09:40:00,
2013-03-05 04:45:00,28.3,22.3,29.83,NNW,335,3.0,3.0,78,0.00,,,0.00,WeatherCatV1.10B1784,2013-03-05 09:45:00,
2013-03-05 04:50:00,28.4,22.4,29.83,NNW,327,2.0,7.0,78,0.00,,,0.00,WeatherCatV1.10B1784,2013-03-05 09:50:00,
2013-03-05 04:55:00,28.3,22.3,29.83,NNW,327,1.0,4.0,78,0.00,,,0.00,WeatherCatV1.10B1784,2013-03-05 09:55:00,
2013-03-05 05:00:00,28.3,22.3,29.83,NNW,327,3.0,4.0,78,0.00,,,0.00,WeatherCatV1.10B1784,2013-03-05 10:00:00,
2013-03-05 05:05:00,28.4,22.4,29.84,NW,323,7.0,11.0,78,0.00,,,0.00,WeatherCatV1.10B1784,2013-03-05 10:05:00,
2013-03-05 05:10:00,28.4,22.4,29.84,NW,318,5.0,7.0,78,0.00,,,0.00,WeatherCatV1.10B1784,2013-03-05 10:10:00,
2013-03-05 05:15:00,28.4,22.4,29.84,NW,323,4.0,4.0,78,0.00,,,0.00,WeatherCatV1.10B1784,2013-03-05 10:15:00,
2013-03-05 05:20:00,28.3,22.3,29.84,NNW,331,3.0,6.0,78,0.00,,,0.00,WeatherCatV1.10B1784,2013-03-05 10:20:00,
2013-03-05 05:25:00,28.3,22.3,29.84,NNW,334,2.0,4.0,78,0.00,,,0.00,WeatherCatV1.10B1784,2013-03-05 10:25:00,
2013-03-05 05:30:00,28.1,22.1,29.85,NNW,334,0.0,2.0,78,0.00,,,0.00,WeatherCatV1.10B1784,2013-03-05 10:30:00,
2013-03-05 05:35:00,28.1,22.1,29.85,North,354,6.0,6.0,78,0.00,,,0.00,WeatherCatV1.10B1784,2013-03-05 10:35:00,
2013-03-05 05:40:00,28.3,22.3,29.85,NW,307,0.0,5.0,78,0.00,,,0.00,WeatherCatV1.10B1784,2013-03-05 10:40:00,
2013-03-05 05:45:00,28.4,22.4,29.85,North,5,2.0,4.0,78,0.00,,,0.00,WeatherCatV1.10B1784,2013-03-05 10:45:00,
2013-03-05 05:50:00,28.4,22.4,29.85,NW,319,2.0,7.0,78,0.00,,,0.00,WeatherCatV1.10B1784,2013-03-05 10:50:00,
2013-03-05 05:55:00,28.5,22.5,29.85,West,281,2.0,8.0,78,0.00,,,0.00,WeatherCatV1.10B1784,2013-03-05 10:55:00,
2013-03-05 06:00:00,28.5,22.5,29.85,NW,312,2.0,5.0,78,0.00,,,0.00,WeatherCatV1.10B1784,2013-03-05 11:00:00,
2013-03-05 06:05:00,28.5,22.5,29.86,NW,315,3.0,3.0,78,0.00,,,0.00,WeatherCatV1.10B1784,2013-03-05 11:05:00,
2013-03-05 06:10:00,28.6,22.6,29.86,NNW,346,5.0,5.0,78,0.00,,,0.00,WeatherCatV1.10B1784,2013-03-05 11:10:00,
2013-03-05 06:15:00,28.7,22.7,29.86,NNW,344,2.0,2.0,78,0.00,,,0.00,WeatherCatV1.10B1784,2013-03-05 11:15:00,
2013-03-05 06:20:00,28.8,22.8,29.86,NW,316,0.0,3.0,78,0.00,,,0.00,WeatherCatV1.10B1784,2013-03-05 11:20:00,
2013-03-05 06:25:00,28.8,22.8,29.86,NW,314,1.0,4.0,78,0.00,,,0.00,WeatherCatV1.10B1784,2013-03-05 11:25:00,
2013-03-05 06:30:00,28.8,22.8,29.86,NW,317,2.0,5.0,78,0.00,,,0.00,WeatherCatV1.10B1784,2013-03-05 11:30:00,
2013-03-05 06:35:00,29.0,23.0,29.86,NW,317,3.0,6.0,78,0.00,,,0.00,WeatherCatV1.10B1784,2013-03-05 11:35:00,
2013-03-05 06:40:00,29.2,23.2,29.86,NNW,340,3.0,7.0,78,0.00,,,0.00,WeatherCatV1.10B1784,2013-03-05 11:40:00,
2013-03-05 06:45:00,29.3,23.0,29.87,NNW,342,2.0,8.0,77,0.00,,,0.00,WeatherCatV1.10B1784,2013-03-05 11:45:00,
2013-03-05 06:50:00,29.5,23.2,29.87,NW,325,5.0,7.0,77,0.00,,,0.00,WeatherCatV1.10B1784,2013-03-05 11:50:00,
2013-03-05 06:55:00,29.6,23.3,29.87,NW,319,1.0,4.0,77,0.00,,,0.00,WeatherCatV1.10B1784,2013-03-05 11:55:00,
2013-03-05 07:00:00,29.8,23.5,29.87,NNW,346,5.0,7.0,77,0.00,,,0.00,WeatherCatV1.10B1784,2013-03-05 12:00:00,
2013-03-05 07:05:00,29.9,23.6,29.88,North,349,1.0,5.0,77,0.00,,,0.00,WeatherCatV1.10B1784,2013-03-05 12:05:00,
2013-03-05 07:10:00,29.9,23.6,29.88,North,349,0.0,3.0,77,0.00,,,0.00,WeatherCatV1.10B1784,2013-03-05 12:10:00,
2013-03-05 07:15:00,30.0,23.4,29.88,NNW,331,2.0,6.0,76,0.00,,,0.00,WeatherCatV1.10B1784,2013-03-05 12:15:00,
2013-03-05 07:20:00,30.1,23.5,29.88,NNW,340,0.0,3.0,76,0.00,,,0.00,WeatherCatV1.10B1784,2013-03-05 12:20:00,
2013-03-05 07:25:00,30.1,23.5,29.88,NNW,340,2.0,4.0,76,0.00,,,0.00,WeatherCatV1.10B1784,2013-03-05 12:25:00,
2013-03-05 07:30:00,30.2,23.6,29.89,NNW,338,0.0,4.0,76,0.00,,,0.00,WeatherCatV1.10B1784,2013-03-05 12:30:00,
2013-03-05 07:35:00,30.3,23.7,29.89,NW,317,0.0,5.0,76,0.00,,,0.00,WeatherCatV1.10B1784,2013-03-05 12:35:00,
2013-03-05 07:40:00,30.4,23.8,29.89,NW,325,2.0,7.0,76,0.00,,,0.00,WeatherCatV1.10B1784,2013-03-05 12:40:00,
2013-03-05 07:45:00,30.5,23.5,29.90,NNW,329,3.0,7.0,75,0.00,,,0.00,WeatherCatV1.10B1784,2013-03-05 12:45:00,
2013-03-05 07:50:00,30.6,23.6,29.90,NW,310,3.0,4.0,75,0.00,,,0.00,WeatherCatV1.10B1784,2013-03-05 12:50:00,
2013-03-05 07:55:00,30.8,24.1,29.90,NW,315,2.0,3.0,76,0.00,,,0.00,WeatherCatV1.10B1784,2013-03-05 12:55:00,
2013-03-05 08:00:00,31.0,24.0,29.90,NW,313,3.0,5.0,75,0.00,,,0.00,WeatherCatV1.10B1784,2013-03-05 13:00:00,
2013-03-05 08:05:00,31.2,24.2,29.90,NW,311,2.0,5.0,75,0.00,,,0.00,WeatherCatV1.10B1784,2013-03-05 13:05:00,
2013-03-05 08:10:00,31.4,24.4,29.90,NW,313,2.0,2.0,75,0.00,,,0.00,WeatherCatV1.10B1784,2013-03-05 13:10:00,
2013-03-05 08:15:00,31.7,24.4,29.90,NNE,14,1.0,11.0,74,0.00,,,0.00,WeatherCatV1.10B1784,2013-03-05 13:15:00,
2013-03-05 08:20:00,31.8,24.1,29.90,NNW,331,3.0,4.0,73,0.00,,,0.00,WeatherCatV1.10B1784,2013-03-05 13:20:00,
2013-03-05 08:25:00,31.8,24.1,29.91,NW,321,4.0,8.0,73,0.00,,,0.00,WeatherCatV1.10B1784,2013-03-05 13:25:00,
2013-03-05 08:30:00,32.0,24.7,29.91,NNE,22,3.0,5.0,74,0.00,,,0.00,WeatherCatV1.10B1784,2013-03-05 13:30:00,
2013-03-05 08:35:00,32.3,24.6,29.91,NW,317,4.0,8.0,73,0.00,,,0.00,WeatherCatV1.10B1784,2013-03-05 13:35:00,
2013-03-05 08:40:00,32.4,24.7,29.91,NW,317,2.0,3.0,73,0.00,,,0.00,WeatherCatV1.10B1784,2013-03-05 13:40:00,
2013-03-05 08:45:00,32.5,24.5,29.91,NW,310,3.0,4.0,72,0.00,,,0.00,WeatherCatV1.10B1784,2013-03-05 13:45:00,
2013-03-05 08:50:00,32.6,24.6,29.92,NW,312,2.0,3.0,72,0.00,,,0.00,WeatherCatV1.10B1784,2013-03-05 13:50:00,
2013-03-05 08:55:00,32.8,24.8,29.92,NW,314,2.0,4.0,72,0.00,,,0.00,WeatherCatV1.10B1784,2013-03-05 13:55:00,
2013-03-05 09:00:00,33.0,25.3,29.92,NW,319,1.0,1.0,73,0.00,,,0.00,WeatherCatV1.10B1784,2013-03-05 14:00:00,
2013-03-05 09:05:00,33.3,25.3,29.92,NNW,341,2.0,5.0,72,0.00,,,0.00,WeatherCatV1.10B1784,2013-03-05 14:05:00,
2013-03-05 09:10:00,33.4,25.0,29.92,NW,310,3.0,6.0,71,0.00,,,0.00,WeatherCatV1.10B1784,2013-03-05 14:10:00,
2013-03-05 09:15:00,33.5,25.1,29.92,NNW,333,2.0,4.0,71,0.00,,,0.00,WeatherCatV1.10B1784,2013-03-05 14:15:00,
2013-03-05 09:20:00,33.7,25.0,29.92,NW,323,3.0,5.0,70,0.00,,,0.00,WeatherCatV1.10B1784,2013-03-05 14:20:00,
2013-03-05 09:25:00,34.1,25.4,29.92,NW,310,4.0,5.0,70,0.00,,,0.00,WeatherCatV1.10B1784,2013-03-05 14:25:00,
2013-03-05 09:30:00,34.5,25.7,29.92,NW,309,2.0,3.0,70,0.00,,,0.00,WeatherCatV1.10B1784,2013-03-05 14:30:00,
2013-03-05 09:35:00,34.6,25.5,29.92,NW,317,3.0,4.0,69,0.00,,,0.00,WeatherCatV1.10B1784,2013-03-05 14:35:00,
2013-03-05 09:40:00,34.8,25.7,29.92,NW,321,3.0,5.0,69,0.00,,,0.00,WeatherCatV1.10B1784,2013-03-05 14:40:00,
2013-03-05 09:45:00,34.8,25.7,29.93,NNW,331,1.0,5.0,69,0.00,,,0.00,WeatherCatV1.10B1784,2013-03-05 14:45:00,
2013-03-05 09:50:00,35.1,26.0,29.93,NNW,331,3.0,5.0,69,0.00,,,0.00,WeatherCatV1.10B1784,2013-03-05 14:50:00,
2013-03-05 09:55:00,35.2,26.1,29.93,NNW,331,2.0,5.0,69,0.00,,,0.00,WeatherCatV1.10B1784,2013-03-05 14:55:00,
2013-03-05 10:00:00,35.3,26.2,29.92,NNW,331,1.0,3.0,69,0.00,,,0.00,WeatherCatV1.10B1784,2013-03-05 15:00:00,
2013-03-05 10:05:00,35.6,26.1,29.92,NNW,331,2.0,5.0,68,0.00,,,0.00,WeatherCatV1.10B1784,2013-03-05 15:05:00,
2013-03-05 10:10:00,35.7,25.8,29.92,NNW,331,2.0,3.0,67,0.00,,,0.00,WeatherCatV1.10B1784,2013-03-05 15:10:00,
2013-03-05 10:15:00,36.1,26.2,29.92,WNW,290,4.0,7.0,67,0.00,,,0.00,WeatherCatV1.10B1784,2013-03-05 15:15:00,
2013-03-05 10:20:00,36.2,26.3,29.92,NW,304,3.0,5.0,67,0.00,,,0.00,WeatherCatV1.10B1784,2013-03-05 15:20:00,
2013-03-05 10:25:00,36.4,26.9,29.92,NW,305,2.0,3.0,68,0.00,,,0.00,WeatherCatV1.10B1784,2013-03-05 15:25:00,
2013-03-05 10:30:00,37.0,27.1,29.92,NW,305,0.0,1.0,67,0.00,,,0.00,WeatherCatV1.10B1784,2013-03-05 15:30:00,
2013-03-05 10:35:00,37.5,27.2,29.92,NW,305,0.0,2.0,66,0.00,,,0.00,WeatherCatV1.10B1784,2013-03-05 15:35:00,
2013-03-05 10:40:00,37.8,27.1,29.92,NW,305,2.0,3.0,65,0.00,,,0.00,WeatherCatV1.10B1784,2013-03-05 15:40:00,
2013-03-05 10:45:00,38.2,27.1,29.93,NW,305,0.0,3.0,64,0.00,,,0.00,WeatherCatV1.10B1784,2013-03-05 15:45:00,
2013-03-05 10:50:00,38.2,27.5,29.93,NW,306,4.0,4.0,65,0.00,,,0.00,WeatherCatV1.10B1784,2013-03-05 15:50:00,
2013-03-05 10:55:00,38.1,27.8,29.93,NW,319,0.0,4.0,66,0.00,,,0.00,WeatherCatV1.10B1784,2013-03-05 15:55:00,
2013-03-05 11:00:00,38.1,27.4,29.93,NW,323,0.0,5.0,65,0.00,,,0.00,WeatherCatV1.10B1784,2013-03-05 16:00:00,
2013-03-05 11:05:00,38.3,27.6,29.93,NW,325,0.0,4.0,65,0.00,,,0.00,WeatherCatV1.10B1784,2013-03-05 16:05:00,
2013-03-05 11:10:00,38.4,27.3,29.93,NW,325,2.0,2.0,64,0.00,,,0.00,WeatherCatV1.10B1784,2013-03-05 16:10:00,
2013-03-05 11:15:00,38.7,27.6,29.93,NW,325,1.0,3.0,64,0.00,,,0.00,WeatherCatV1.10B1784,2013-03-05 16:15:00,
2013-03-05 11:20:00,38.9,27.8,29.93,NW,325,3.0,4.0,64,0.00,,,0.00,WeatherCatV1.10B1784,2013-03-05 16:20:00,
2013-03-05 11:25:00,39.1,28.0,29.93,NW,325,0.0,1.0,64,0.00,,,0.00,WeatherCatV1.10B1784,2013-03-05 16:25:00,
2013-03-05 11:30:00,39.6,28.4,29.92,NNW,328,3.0,4.0,64,0.00,,,0.00,WeatherCatV1.10B1784,2013-03-05 16:30:00,
2013-03-05 11:35:00,40.3,28.3,29.92,NNW,329,4.0,4.0,62,0.00,,,0.00,WeatherCatV1.10B1784,2013-03-05 16:35:00,
2013-03-05 11:40:00,40.5,28.5,29.92,NNW,332,4.0,5.0,62,0.00,,,0.00,WeatherCatV1.10B1784,2013-03-05 16:40:00,
2013-03-05 11:45:00,40.4,28.4,29.92,NE,50,3.0,5.0,62,0.00,,,0.00,WeatherCatV1.10B1784,2013-03-05 16:45:00,
2013-03-05 11:50:00,40.5,28.5,29.92,NE,50,0.0,0.0,62,0.00,,,0.00,WeatherCatV1.10B1784,2013-03-05 16:50:00,
2013-03-05 11:55:00,40.6,28.6,29.93,NE,50,4.0,4.0,62,0.00,,,0.00,WeatherCatV1.10B1784,2013-03-05 16:55:00,
2013-03-05 12:00:00,40.9,28.9,29.93,ENE,68,0.0,8.0,62,0.00,,,0.00,WeatherCatV1.10B1784,2013-03-05 17:00:00,
2013-03-05 12:05:00,41.3,28.9,29.93,NE,50,2.0,4.0,61,0.00,,,0.00,WeatherCatV1.10B1784,2013-03-05 17:05:00,
2013-03-05 12:10:00,41.3,28.9,29.93,NNE,32,1.0,3.0,61,0.00,,,0.00,WeatherCatV1.10B1784,2013-03-05 17:10:00,
2013-03-05 12:15:00,41.7,28.9,29.93,NNE,31,2.0,3.0,60,0.00,,,0.00,WeatherCatV1.10B1784,2013-03-05 17:15:00,
2013-03-05 12:20:00,41.8,28.9,29.93,NNE,31,1.0,2.0,60,0.00,,,0.00,WeatherCatV1.10B1784,2013-03-05 17:20:00,
2013-03-05 12:25:00,41.6,28.8,29.93,NNE,32,2.0,2.0,60,0.00,,,0.00,WeatherCatV1.10B1784,2013-03-05 17:25:00,
2013-03-05 12:30:00,41.4,29.0,29.93,NNE,31,1.0,3.0,61,0.00,,,0.00,WeatherCatV1.10B1784,2013-03-05 17:30:00,
2013-03-05 12:35:00,41.7,28.9,29.93,NNE,31,0.0,0.0,60,0.00,,,0.00,WeatherCatV1.10B1784,2013-03-05 17:35:00,
2013-03-05 12:40:00,42.2,28.9,29.93,NNE,32,1.0,7.0,59,0.00,,,0.00,WeatherCatV1.10B1784,2013-03-05 17:40:00,
2013-03-05 12:45:00,42.3,29.0,29.93,NNE,32,0.0,1.0,59,0.00,,,0.00,WeatherCatV1.10B1784,2013-03-05 17:45:00,
2013-03-05 12:46:00,42.3,29.4,29.93,NE,34,4.0,4.0,60,0.00,,,0.00,WeatherCatV1.10B1784,2013-03-05 17:46:00,
2013-03-05 12:51:00,42.2,29.3,29.93,NE,46,2.0,2.0,60,0.00,,,0.00,WeatherCatV1.10B1784,2013-03-05 17:51:00,
2013-03-05 12:56:00,42.3,29.0,29.93,NE,46,2.0,6.0,59,0.00,,,0.00,WeatherCatV1.10B1784,2013-03-05 17:56:00,
2013-03-05 13:01:00,42.3,29.4,29.93,NE,46,0.0,0.0,60,0.00,,,0.00,WeatherCatV1.10B1784,2013-03-05 18:01:00,
2013-03-05 13:06:00,42.5,29.2,29.93,NE,46,1.0,2.0,59,0.00,,,0.00,WeatherCatV1.10B1784,2013-03-05 18:06:00,
2013-03-05 13:11:00,42.4,28.7,29.92,NE,46,0.0,3.0,58,0.00,,,0.00,WeatherCatV1.10B1784,2013-03-05 18:11:00,
2013-03-05 13:16:00,42.8,29.5,29.92,NE,44,4.0,6.0,59,0.00,,,0.00,WeatherCatV1.10B1784,2013-03-05 18:16:00,
2013-03-05 13:21:00,42.8,29.1,29.92,NE,43,2.0,3.0,58,0.00,,,0.00,WeatherCatV1.10B1784,2013-03-05 18:21:00,
2013-03-05 13:26:00,43.1,29.3,29.93,NE,43,3.0,6.0,58,0.00,,,0.00,WeatherCatV1.10B1784,2013-03-05 18:26:00,
2013-03-05 13:31:00,43.2,29.4,29.93,NE,46,2.0,2.0,58,0.00,,,0.00,WeatherCatV1.10B1784,2013-03-05 18:31:00,
2013-03-05 13:36:00,43.2,29.0,29.93,NE,48,2.0,3.0,57,0.00,,,0.00,WeatherCatV1.10B1784,2013-03-05 18:36:00,
2013-03-05 13:41:00,42.8,28.6,29.93,NE,48,0.0,0.0,57,0.00,,,0.00,WeatherCatV1.10B1784,2013-03-05 18:41:00,
2013-03-05 13:42:00,42.8,29.1,29.93,NE,48,2.0,2.0,58,0.00,,,0.00,WeatherCatV1.10B1784,2013-03-05 18:42:00,
2013-03-05 13:47:00,43.1,29.3,29.93,NE,48,0.0,0.0,58,0.00,,,0.00,WeatherCatV1.10B1784,2013-03-05 18:47:00,
2013-03-05 13:52:00,43.2,29.0,29.93,NE,48,0.0,4.0,57,0.00,,,0.00,WeatherCatV1.10B1784,2013-03-05 18:52:00,
2013-03-05 13:57:00,42.7,29.0,29.93,NE,48,1.0,3.0,58,0.00,,,0.00,WeatherCatV1.10B1784,2013-03-05 18:57:00,
2013-03-05 14:02:00,42.6,29.3,29.93,NE,48,0.0,0.0,59,0.00,,,0.00,WeatherCatV1.10B1784,2013-03-05 19:02:00,
2013-03-05 14:07:00,42.5,28.8,29.93,NE,48,2.0,2.0,58,0.00,,,0.00,WeatherCatV1.10B1784,2013-03-05 19:07:00,
2013-03-05 14:12:00,42.6,28.9,29.94,NE,48,0.0,0.0,58,0.00,,,0.00,WeatherCatV1.10B1784,2013-03-05 19:12:00,
2013-03-05 14:17:00,42.7,29.0,29.94,NE,48,1.0,4.0,58,0.00,,,0.00,WeatherCatV1.10B1784,2013-03-05 19:17:00,
2013-03-05 14:22:00,42.7,29.0,29.94,NE,48,0.0,4.0,58,0.00,,,0.00,WeatherCatV1.10B1784,2013-03-05 19:22:00,
2013-03-05 14:27:00,42.5,28.8,29.94,NE,38,0.0,7.0,58,0.00,,,0.00,WeatherCatV1.10B1784,2013-03-05 19:27:00,
2013-03-05 14:32:00,42.4,29.1,29.94,NE,38,0.0,4.0,59,0.00,,,0.00,WeatherCatV1.10B1784,2013-03-05 19:32:00,
2013-03-05 14:37:00,42.3,28.6,29.94,NE,38,2.0,4.0,58,0.00,,,0.00,WeatherCatV1.10B1784,2013-03-05 19:37:00,
2013-03-05 14:42:00,42.3,28.6,29.94,NE,38,4.0,4.0,58,0.00,,,0.00,WeatherCatV1.10B1784,2013-03-05 19:42:00,
2013-03-05 14:47:00,42.3,29.0,29.95,NE,38,0.0,0.0,59,0.00,,,0.00,WeatherCatV1.10B1784,2013-03-05 19:47:00,
2013-03-05 14:52:00,42.3,28.2,29.95,ENE,70,2.0,7.0,57,0.00,,,0.00,WeatherCatV1.10B1784,2013-03-05 19:52:00,
2013-03-05 14:57:00,42.2,28.1,29.95,ENE,61,1.0,5.0,57,0.00,,,0.00,WeatherCatV1.10B1784,2013-03-05 19:57:00,
2013-03-05 15:02:00,42.2,28.1,29.95,ENE,61,0.0,3.0,57,0.00,,,0.00,WeatherCatV1.10B1784,2013-03-05 20:02:00,
2013-03-05 15:07:00,42.2,28.5,29.95,ENE,61,0.0,0.0,58,0.00,,,0.00,WeatherCatV1.10B1784,2013-03-05 20:07:00,
2013-03-05 15:12:00,42.4,28.7,29.95,ENE,61,0.0,1.0,58,0.00,,,0.00,WeatherCatV1.10B1784,2013-03-05 20:12:00,
2013-03-05 15:17:00,42.3,27.7,29.95,ENE,61,0.0,1.0,56,0.00,,,0.00,WeatherCatV1.10B1784,2013-03-05 20:17:00,
2013-03-05 15:22:00,42.3,28.2,29.95,ENE,61,0.0,1.0,57,0.00,,,0.00,WeatherCatV1.10B1784,2013-03-05 20:22:00,
2013-03-05 15:27:00,42.5,28.4,29.96,ENE,61,0.0,1.0,57,0.00,,,0.00,WeatherCatV1.10B1784,2013-03-05 20:27:00,
2013-03-05 15:32:00,42.6,28.0,29.96,ENE,61,0.0,4.0,56,0.00,,,0.00,WeatherCatV1.10B1784,2013-03-05 20:32:00,
2013-03-05 15:37:00,42.7,28.5,29.96,ENE,61,0.0,0.0,57,0.00,,,0.00,WeatherCatV1.10B1784,2013-03-05 20:37:00,
2013-03-05 15:42:00,42.6,28.0,29.96,ENE,61,2.0,2.0,56,0.00,,,0.00,WeatherCatV1.10B1784,2013-03-05 20:42:00,
2013-03-05 15:47:00,42.7,28.5,29.97,ENE,61,0.0,0.0,57,0.00,,,0.00,WeatherCatV1.10B1784,2013-03-05 20:47:00,
2013-03-05 15:52:00,42.6,28.0,29.97,ENE,61,0.0,0.0,56,0.00,,,0.00,WeatherCatV1.10B1784,2013-03-05 20:52:00,
2013-03-05 15:57:00,42.7,28.5,29.97,ENE,61,0.0,0.0,57,0.00,,,0.00,WeatherCatV1.10B1784,2013-03-05 20:57:00,
2013-03-05 16:02:00,42.7,28.5,29.97,ENE,61,0.0,0.0,57,0.00,,,0.00,WeatherCatV1.10B1784,2013-03-05 21:02:00,
2013-03-05 16:07:00,42.4,27.8,29.97,ENE,61,2.0,3.0,56,0.00,,,0.00,WeatherCatV1.10B1784,2013-03-05 21:07:00,
2013-03-05 16:12:00,42.4,28.3,29.97,ENE,61,0.0,0.0,57,0.00,,,0.00,WeatherCatV1.10B1784,2013-03-05 21:12:00,
2013-03-05 16:17:00,42.3,28.6,29.98,ENE,61,0.0,0.0,58,0.00,,,0.00,WeatherCatV1.10B1784,2013-03-05 21:17:00,
2013-03-05 16:22:00,42.2,28.5,29.98,ENE,61,0.0,0.0,58,0.00,,,0.00,WeatherCatV1.10B1784,2013-03-05 21:22:00,
2013-03-05 16:27:00,41.9,28.2,29.98,ENE,61,0.0,2.0,58,0.00,,,0.00,WeatherCatV1.10B1784,2013-03-05 21:27:00,
2013-03-05 16:32:00,41.9,28.6,29.98,ENE,61,0.0,0.0,59,0.00,,,0.00,WeatherCatV1.10B1784,2013-03-05 21:32:00,
2013-03-05 16:37:00,41.9,28.2,29.98,ENE,61,0.0,2.0,58,0.00,,,0.00,WeatherCatV1.10B1784,2013-03-05 21:37:00,
2013-03-05 16:42:00,41.9,28.6,29.98,ENE,61,0.0,1.0,59,0.00,,,0.00,WeatherCatV1.10B1784,2013-03-05 21:42:00,
2013-03-05 16:47:00,41.8,28.5,29.98,ENE,61,0.0,4.0,59,0.00,,,0.00,WeatherCatV1.10B1784,2013-03-05 21:47:00,
2013-03-05 16:52:00,41.7,28.4,29.98,ENE,61,0.0,1.0,59,0.00,,,0.00,WeatherCatV1.10B1784,2013-03-05 21:52:00,
2013-03-05 16:57:00,41.7,28.4,29.98,ENE,61,0.0,0.0,59,0.00,,,0.00,WeatherCatV1.10B1784,2013-03-05 21:57:00,
2013-03-05 17:02:00,41.6,28.8,29.98,ENE,61,0.0,0.0,60,0.00,,,0.00,WeatherCatV1.10B1784,2013-03-05 22:02:00,
2013-03-05 17:07:00,41.5,28.7,29.98,ENE,61,0.0,0.0,60,0.00,,,0.00,WeatherCatV1.10B1784,2013-03-05 22:07:00,
2013-03-05 17:12:00,41.3,28.9,29.98,ENE,61,0.0,0.0,61,0.00,,,0.00,WeatherCatV1.10B1784,2013-03-05 22:12:00,
2013-03-05 17:17:00,41.2,28.8,29.99,ENE,61,0.0,1.0,61,0.00,,,0.00,WeatherCatV1.10B1784,2013-03-05 22:17:00,
2013-03-05 17:22:00,41.1,28.7,29.99,ENE,61,0.0,0.0,61,0.00,,,0.00,WeatherCatV1.10B1784,2013-03-05 22:22:00,
2013-03-05 17:27:00,41.1,28.7,29.99,ENE,61,0.0,0.0,61,0.00,,,0.00,WeatherCatV1.10B1784,2013-03-05 22:27:00,
2013-03-05 17:32:00,41.0,28.6,29.99,ENE,61,0.0,0.0,61,0.00,,,0.00,WeatherCatV1.10B1784,2013-03-05 22:32:00,
2013-03-05 17:37:00,40.9,28.9,29.99,ENE,61,0.0,0.0,62,0.00,,,0.00,WeatherCatV1.10B1784,2013-03-05 22:37:00,
2013-03-05 17:42:00,40.8,28.8,29.99,ENE,61,0.0,0.0,62,0.00,,,0.00,WeatherCatV1.10B1784,2013-03-05 22:42:00,
2013-03-05 17:47:00,40.6,28.6,29.98,ENE,61,0.0,0.0,62,0.00,,,0.00,WeatherCatV1.10B1784,2013-03-05 22:47:00,
2013-03-05 17:52:00,40.4,29.2,29.98,ENE,61,0.0,0.0,64,0.00,,,0.00,WeatherCatV1.10B1784,2013-03-05 22:52:00,
2013-03-05 17:57:00,40.2,28.6,29.99,ENE,61,0.0,0.0,63,0.00,,,0.00,WeatherCatV1.10B1784,2013-03-05 22:57:00,
2013-03-05 18:02:00,40.0,28.8,29.98,ENE,61,0.0,0.0,64,0.00,,,0.00,WeatherCatV1.10B1784,2013-03-05 23:02:00,
2013-03-05 18:07:00,39.7,28.5,29.99,ENE,61,0.0,0.0,64,0.00,,,0.00,WeatherCatV1.10B1784,2013-03-05 23:07:00,
2013-03-05 18:12:00,39.4,28.6,29.99,ENE,61,0.0,0.0,65,0.00,,,0.00,WeatherCatV1.10B1784,2013-03-05 23:12:00,
2013-03-05 18:17:00,38.9,28.5,29.99,ENE,61,0.0,0.0,66,0.00,,,0.00,WeatherCatV1.10B1784,2013-03-05 23:17:00,
2013-03-05 18:22:00,38.5,28.5,29.99,ENE,61,0.0,0.0,67,0.00,,,0.00,WeatherCatV1.10B1784,2013-03-05 23:22:00,
2013-03-05 18:27:00,38.0,28.4,29.99,ENE,61,0.0,0.0,68,0.00,,,0.00,WeatherCatV1.10B1784,2013-03-05 23:27:00,
2013-03-05 18:31:00,37.7,28.5,29.99,ENE,61,0.0,0.0,69,0.00,,,0.00,WeatherCatV1.10B1784,2013-03-05 23:31:00,
2013-03-05 18:35:00,37.2,28.3,30.00,ENE,61,0.0,0.0,70,0.00,,,0.00,WeatherCatV1.10B1784,2013-03-05 23:35:00,
2013-03-05 18:40:00,36.9,28.4,30.00,ENE,61,0.0,0.0,71,0.00,,,0.00,WeatherCatV1.10B1784,2013-03-05 23:40:00,
2013-03-05 18:45:00,36.6,28.1,30.00,ENE,61,0.0,0.0,71,0.00,,,0.00,WeatherCatV1.10B1784,2013-03-05 23:45:00,
2013-03-05 18:50:00,36.4,27.9,30.01,ENE,61,0.0,0.0,71,0.00,,,0.00,WeatherCatV1.10B1784,2013-03-05 23:50:00,
2013-03-05 18:56:00,36.3,28.2,30.01,ENE,61,0.0,0.0,72,0.00,,,0.00,WeatherCatV1.10B1784,2013-03-05 23:56:00,
2013-03-05 19:01:00,36.2,28.4,30.01,ENE,61,0.0,0.0,73,0.00,,,0.00,WeatherCatV1.10B1784,2013-03-06 00:01:00,
2013-03-05 19:06:00,36.0,28.5,30.01,ENE,61,0.0,0.0,74,0.00,,,0.00,WeatherCatV1.10B1784,2013-03-06 00:06:00,
2013-03-05 19:11:00,35.9,28.1,30.01,ENE,61,0.0,0.0,73,0.00,,,0.00,WeatherCatV1.10B1784,2013-03-06 00:11:00,
2013-03-05 19:16:00,36.0,28.5,30.01,ENE,61,0.0,0.0,74,0.00,,,0.00,WeatherCatV1.10B1784,2013-03-06 00:16:00,
2013-03-05 19:21:00,36.2,28.4,30.02,ENE,61,0.0,0.0,73,0.00,,,0.00,WeatherCatV1.10B1784,2013-03-06 00:21:00,
2013-03-05 19:26:00,36.2,28.4,30.02,ENE,61,0.0,0.0,73,0.00,,,0.00,WeatherCatV1.10B1784,2013-03-06 00:26:00,
2013-03-05 19:31:00,36.2,28.4,30.02,ENE,61,0.0,0.0,73,0.00,,,0.00,WeatherCatV1.10B1784,2013-03-06 00:31:00,
2013-03-05 19:36:00,35.9,28.4,30.01,ENE,61,0.0,0.0,74,0.00,,,0.00,WeatherCatV1.10B1784,2013-03-06 00:36:00,
2013-03-05 19:41:00,35.6,28.1,30.02,ENE,61,0.0,0.0,74,0.00,,,0.00,WeatherCatV1.10B1784,2013-03-06 00:41:00,
2013-03-05 19:46:00,35.5,28.4,30.02,ENE,61,0.0,0.0,75,0.00,,,0.00,WeatherCatV1.10B1784,2013-03-06 00:46:00,
2013-03-05 19:51:00,35.4,28.3,30.02,ENE,61,0.0,0.0,75,0.00,,,0.00,WeatherCatV1.10B1784,2013-03-06 00:51:00,
2013-03-05 19:56:00,35.4,28.6,30.02,ENE,61,0.0,0.0,76,0.00,,,0.00,WeatherCatV1.10B1784,2013-03-06 00:56:00,
2013-03-05 20:01:00,35.4,28.6,30.02,ENE,61,0.0,0.0,76,0.00,,,0.00,WeatherCatV1.10B1784,2013-03-06 01:01:00,
2013-03-05 20:06:00,35.3,29.1,30.02,ENE,61,0.0,0.0,78,0.00,,,0.00,WeatherCatV1.10B1784,2013-03-06 01:06:00,
2013-03-05 20:11:00,35.3,28.8,30.02,ENE,61,0.0,0.0,77,0.00,,,0.00,WeatherCatV1.10B1784,2013-03-06 01:11:00,
2013-03-05 20:16:00,35.3,28.8,30.02,ENE,61,0.0,0.0,77,0.00,,,0.00,WeatherCatV1.10B1784,2013-03-06 01:16:00,
2013-03-05 20:21:00,35.3,28.8,30.02,ENE,61,0.0,0.0,77,0.00,,,0.00,WeatherCatV1.10B1784,2013-03-06 01:21:00,
2013-03-05 20:26:00,35.3,28.8,30.02,ENE,61,0.0,0.0,77,0.00,,,0.00,WeatherCatV1.10B1784,2013-03-06 01:26:00,
2013-03-05 20:31:00,35.3,29.1,30.02,ENE,61,0.0,0.0,78,0.00,,,0.00,WeatherCatV1.10B1784,2013-03-06 01:31:00,
2013-03-05 20:36:00,35.2,29.0,30.02,ENE,61,0.0,0.0,78,0.00,,,0.00,WeatherCatV1.10B1784,2013-03-06 01:36:00,
2013-03-05 20:41:00,35.1,29.3,30.02,ENE,61,0.0,0.0,79,0.00,,,0.00,WeatherCatV1.10B1784,2013-03-06 01:41:00,
2013-03-05 20:46:00,35.0,29.2,30.02,ENE,61,0.0,0.0,79,0.00,,,0.00,WeatherCatV1.10B1784,2013-03-06 01:46:00,
2013-03-05 20:51:00,35.0,28.8,30.02,ENE,61,0.0,0.0,78,0.00,,,0.00,WeatherCatV1.10B1784,2013-03-06 01:51:00,
2013-03-05 20:56:00,34.9,29.1,30.02,ENE,61,0.0,0.0,79,0.00,,,0.00,WeatherCatV1.10B1784,2013-03-06 01:56:00,
2013-03-05 21:01:00,34.8,28.7,30.02,ENE,61,0.0,0.0,78,0.00,,,0.00,WeatherCatV1.10B1784,2013-03-06 02:01:00,
2013-03-05 21:06:00,34.8,29.0,30.02,ENE,61,0.0,0.0,79,0.00,,,0.00,WeatherCatV1.10B1784,2013-03-06 02:06:00,
2013-03-05 21:11:00,34.8,29.0,30.02,ENE,61,0.0,0.0,79,0.00,,,0.00,WeatherCatV1.10B1784,2013-03-06 02:11:00,
2013-03-05 21:16:00,34.9,29.1,30.02,ENE,61,0.0,0.0,79,0.00,,,0.00,WeatherCatV1.10B1784,2013-03-06 02:16:00,
2013-03-05 21:21:00,35.1,29.3,30.02,ENE,61,0.0,0.0,79,0.00,,,0.00,WeatherCatV1.10B1784,2013-03-06 02:21:00,
2013-03-05 21:26:00,35.1,29.3,30.02,ENE,61,0.0,0.0,79,0.00,,,0.00,WeatherCatV1.10B1784,2013-03-06 02:26:00,
2013-03-05 21:31:00,35.0,29.5,30.02,ENE,61,0.0,0.0,80,0.00,,,0.00,WeatherCatV1.10B1784,2013-03-06 02:31:00,
2013-03-05 21:36:00,34.8,29.3,30.02,ENE,61,0.0,0.0,80,0.00,,,0.00,WeatherCatV1.10B1784,2013-03-06 02:36:00,
2013-03-05 21:41:00,34.8,29.3,30.02,ENE,61,0.0,0.0,80,0.00,,,0.00,WeatherCatV1.10B1784,2013-03-06 02:41:00,
2013-03-05 21:46:00,34.8,29.3,30.02,ENE,61,0.0,0.0,80,0.00,,,0.00,WeatherCatV1.10B1784,2013-03-06 02:46:00,
2013-03-05 21:51:00,34.7,29.5,30.02,ENE,61,0.0,0.0,81,0.00,,,0.00,WeatherCatV1.10B1784,2013-03-06 02:51:00,
2013-03-05 21:56:00,34.7,29.5,30.02,ENE,61,0.0,0.0,81,0.00,,,0.00,WeatherCatV1.10B1784,2013-03-06 02:56:00,
2013-03-05 22:01:00,34.7,29.5,30.02,ENE,61,0.0,0.0,81,0.00,,,0.00,WeatherCatV1.10B1784,2013-03-06 03:01:00,
2013-03-05 22:06:00,34.7,29.8,30.02,ENE,61,0.0,0.0,82,0.00,,,0.00,WeatherCatV1.10B1784,2013-03-06 03:06:00,
2013-03-05 22:11:00,34.6,29.7,30.02,ENE,61,0.0,0.0,82,0.00,,,0.00,WeatherCatV1.10B1784,2013-03-06 03:11:00,
2013-03-05 22:16:00,34.6,29.7,30.02,ENE,61,0.0,0.0,82,0.00,,,0.00,WeatherCatV1.10B1784,2013-03-06 03:16:00,
2013-03-05 22:21:00,34.5,29.9,30.03,ENE,61,0.0,0.0,83,0.00,,,0.00,WeatherCatV1.10B1784,2013-03-06 03:21:00,
2013-03-05 22:26:00,34.4,29.8,30.03,ENE,61,0.0,0.0,83,0.00,,,0.00,WeatherCatV1.10B1784,2013-03-06 03:26:00,
2013-03-05 22:31:00,34.3,30.0,30.03,ENE,61,0.0,0.0,84,0.00,,,0.00,WeatherCatV1.10B1784,2013-03-06 03:31:00,
2013-03-05 22:36:00,34.3,30.0,30.03,ENE,61,0.0,0.0,84,0.00,,,0.00,WeatherCatV1.10B1784,2013-03-06 03:36:00,
2013-03-05 22:41:00,34.3,30.0,30.04,ENE,61,0.0,0.0,84,0.00,,,0.00,WeatherCatV1.10B1784,2013-03-06 03:41:00,
2013-03-05 22:46:00,34.4,30.1,30.04,ENE,61,0.0,0.0,84,0.00,,,0.00,WeatherCatV1.10B1784,2013-03-06 03:46:00,
2013-03-05 22:51:00,34.4,30.1,30.04,ENE,61,0.0,0.0,84,0.00,,,0.00,WeatherCatV1.10B1784,2013-03-06 03:51:00,
2013-03-05 22:56:00,34.6,30.3,30.04,ENE,61,0.0,0.0,84,0.00,,,0.00,WeatherCatV1.10B1784,2013-03-06 03:56:00,
2013-03-05 23:01:00,34.7,30.4,30.04,ENE,61,0.0,0.0,84,0.00,,,0.00,WeatherCatV1.10B1784,2013-03-06 04:01:00,
2013-03-05 23:06:00,34.8,30.5,30.04,ENE,61,0.0,0.0,84,0.00,,,0.00,WeatherCatV1.10B1784,2013-03-06 04:06:00,
2013-03-05 23:11:00,34.8,30.5,30.05,ENE,61,0.0,0.0,84,0.00,,,0.00,WeatherCatV1.10B1784,2013-03-06 04:11:00,
2013-03-05 23:16:00,34.6,30.6,30.04,ENE,61,0.0,0.0,85,0.00,,,0.00,WeatherCatV1.10B1784,2013-03-06 04:16:00,
2013-03-05 23:21:00,34.5,30.5,30.04,ENE,61,0.0,0.0,85,0.00,,,0.00,WeatherCatV1.10B1784,2013-03-06 04:21:00,
2013-03-05 23:26:00,34.6,30.9,30.04,ENE,61,0.0,0.0,86,0.00,,,0.00,WeatherCatV1.10B1784,2013-03-06 04:26:00,
2013-03-05 23:31:00,34.7,30.9,30.04,ENE,61,0.0,0.0,86,0.00,,,0.00,WeatherCatV1.10B1784,2013-03-06 04:31:00,
2013-03-05 23:36:00,34.5,30.8,30.04,ENE,61,0.0,0.0,86,0.00,,,0.00,WeatherCatV1.10B1784,2013-03-06 04:36:00,
2013-03-05 23:41:00,34.5,30.8,30.04,ENE,61,0.0,1.0,86,0.00,,,0.00,WeatherCatV1.10B1784,2013-03-06 04:41:00,
2013-03-05 23:46:00,34.7,30.7,30.04,ENE,61,0.0,0.0,85,0.00,,,0.00,WeatherCatV1.10B1784,2013-03-06 04:46:00,
2013-03-05 23:51:00,35.1,30.8,30.03,ENE,61,1.0,3.0,84,0.00,,,0.00,WeatherCatV1.10B1784,2013-03-06 04:51:00,
2013-03-05 23:56:00,35.0,31.2,30.03,ENE,61,0.0,6.0,86,0.00,,,0.00,WeatherCatV1.10B1784,2013-03-06 04:56:00,